{"data":{"norad_id":48226,"epoch":"2026-09-19T23:33:42.107904Z","epoch_age_seconds":66830,"freshness":"FRESH","line1":"1 48226U 21031S   26262.98173736 -.00000125  00000+0 -37285-3 0  9998","line2":"2 48226  87.8897 270.7959 0001639  92.1076 268.0242 13.14503949260724","mean_motion":13.14503949,"eccentricity":0.0001639,"inclination_deg":87.8897,"raan_deg":270.7959,"arg_perigee_deg":92.1076,"mean_anomaly_deg":268.0242,"bstar":-0.00037285,"rev_number":26072,"period_min":109.54702730984,"perigee_km":1204.5429302973,"apogee_km":1207.0289402355,"semimajor_km":7583.9229352664,"source":"CELESTRAK","updated_at":"2026-09-20T09:00:44.595460Z"}}